Location: Albany
(35.0170°S, 117.8920°E)
Time: 01:49:26
(UTC+08:00)

N. Korean satellite - Pass Details

Date: 26 November 2020
Orbit: 453 x 502 km, 97.2° (Epoch: 16 January)

Event Time Altitude Azimuth Distance (km) Brightness Sun altitude
Rises 03:45:23 0° 60° (ENE) 2,603 10.6 -11.9°
Reaches altitude 10° 03:48:55 10° 96° (E) 1,731 10.4 -11.3°
Maximum altitude 03:49:57 11° 112° (ESE) 1,671 10.7 -11.2°
Drops below altitude 10° 03:51:01 10° 129° (SE) 1,736 11.0 -11.0°
Sets 03:54:34 0° 165° (SSE) 2,628 11.2 -10.4°
